When you browse on this site, cookies collect data to enhance your experience and personalize the content and advertising you see.
Visit our Privacy Policy to learn more. By continuing to use the site, you agree to this use of cookies and data.
  • In Lithuania
  • List of Countries
  • For 7 days
  • Water Temperature
  • Satellite Maps
  • Weather Map
  • Weather Widgets
  • user-avatar
    Login

    Hourly Weather Chocim

    Today, 20 February, Wednesday

    Time Temperature Precipitation Wind Pressure Humidity
    00:00 +3°C° 0 mm 5 mps 749 mmHg 87%
    01:00 +2°C° 0 mm 5 mps 749 mmHg 85%
    02:00 +2°C° 0 mm 5 mps 750 mmHg 87%
    03:00 +2°C° 0 mm 5 mps 750 mmHg 88%
    04:00 +1°C° 0 mm 5 mps 750 mmHg 90%
    05:00 +2°C° 0 mm 6 mps 750 mmHg 89%
    06:00 +2°C° 0 mm 6 mps 750 mmHg 88%
    07:00 +2°C° 0 mm 6 mps 751 mmHg 87%
    08:00 +2°C° 0.1 mm 6 mps 751 mmHg 84%
    09:00 +2°C° 0.1 mm 6 mps 751 mmHg 81%
    10:00 +2°C° 0.1 mm 6 mps 752 mmHg 78%
    11:00 +3°C° 0.1 mm 6 mps 752 mmHg 77%
    12:00 +3°C° 0.1 mm 6 mps 752 mmHg 75%
    13:00 +3°C° 0.1 mm 6 mps 752 mmHg 74%
    14:00 +3°C° 0.1 mm 6 mps 753 mmHg 75%
    15:00 +3°C° 0.1 mm 6 mps 753 mmHg 75%
    16:00 +3°C° 0.1 mm 6 mps 753 mmHg 76%
    17:00 +3°C° 0.1 mm 5 mps 753 mmHg 77%
    18:00 +3°C° 0.1 mm 5 mps 754 mmHg 78%
    19:00 +4°C° 0.1 mm 4 mps 754 mmHg 79%
    20:00 +4°C° 0 mm 4 mps 754 mmHg 81%
    21:00 +4°C° 0 mm 4 mps 755 mmHg 82%
    22:00 +4°C° 0 mm 3 mps 755 mmHg 83%
    23:00 +4°C° 0 mm 3 mps 755 mmHg 84%

    Tomorrow, 21 February, Thursday

    Time Temperature Precipitation Wind Pressure Humidity
    00:00 +4°C° 0 mm 3 mps 755 mmHg 84%
    01:00 +4°C° 0 mm 3 mps 755 mmHg 85%
    02:00 +4°C° 0 mm 3 mps 755 mmHg 87%
    03:00 +3°C° 0 mm 3 mps 755 mmHg 89%
    04:00 +3°C° 0 mm 4 mps 755 mmHg 91%
    05:00 +3°C° 0 mm 4 mps 755 mmHg 90%
    06:00 +3°C° 0 mm 4 mps 755 mmHg 90%
    07:00 +3°C° 0 mm 4 mps 755 mmHg 89%
    08:00 +3°C° 0.2 mm 4 mps 755 mmHg 87%
    09:00 +3°C° 0.2 mm 5 mps 755 mmHg 86%
    10:00 +3°C° 0.2 mm 5 mps 755 mmHg 84%
    11:00 +3°C° 0.6 mm 6 mps 754 mmHg 84%
    12:00 +3°C° 0.6 mm 6 mps 754 mmHg 83%
    13:00 +4°C° 0.6 mm 7 mps 754 mmHg 83%
    14:00 +3°C° 1 mm 7 mps 753 mmHg 84%
    15:00 +3°C° 1 mm 7 mps 753 mmHg 85%
    16:00 +3°C° 1 mm 7 mps 753 mmHg 86%
    17:00 +3°C° 0.7 mm 6 mps 753 mmHg 87%
    18:00 +4°C° 0.7 mm 6 mps 752 mmHg 88%
    19:00 +4°C° 0.7 mm 6 mps 752 mmHg 89%
    20:00 +4°C° 0.2 mm 6 mps 752 mmHg 90%
    21:00 +4°C° 0.2 mm 6 mps 752 mmHg 91%
    22:00 +4°C° 0.2 mm 6 mps 752 mmHg 91%
    23:00 +5°C° 1 mm 7 mps 752 mmHg 91%

    Day after tomorrow, 22 February, Friday

    Time Temperature Precipitation Wind Pressure Humidity
    00:00 +5°C° 1 mm 7 mps 752 mmHg 91%
    01:00 +5°C° 1 mm 7 mps 752 mmHg 91%
    02:00 +4°C° 0.7 mm 7 mps 752 mmHg 91%
    03:00 +4°C° 0.7 mm 6 mps 753 mmHg 91%
    04:00 +4°C° 0.7 mm 6 mps 753 mmHg 91%
    05:00 +2°C° 0.2 mm 7 mps 754 mmHg 87%
    06:00 -1°C° 0.2 mm 7 mps 756 mmHg 83%
    07:00 -2°C° 0.2 mm 8 mps 757 mmHg 79%
    08:00 -2°C° 0 mm 8 mps 758 mmHg 72%
    09:00 -3°C° 0 mm 7 mps 760 mmHg 66%
    10:00 -3°C° 0 mm 7 mps 761 mmHg 59%
    11:00 -2°C° 0 mm 6 mps 762 mmHg 56%
    12:00 -2°C° 0 mm 6 mps 763 mmHg 53%
    13:00 -2°C° 0 mm 6 mps 764 mmHg 50%
    14:00 -2°C° 0 mm 6 mps 764 mmHg 49%
    15:00 -1°C° 0 mm 5 mps 764 mmHg 48%
    16:00 -2°C° 0 mm 5 mps 765 mmHg 46%
    17:00 -2°C° 0 mm 5 mps 765 mmHg 49%
    18:00 -4°C° 0 mm 5 mps 766 mmHg 53%
    19:00 -4°C° 0 mm 4 mps 767 mmHg 56%
    20:00 -4°C° 0 mm 4 mps 767 mmHg 55%
    21:00 -4°C° 0 mm 4 mps 768 mmHg 53%
    22:00 -5°C° 0 mm 4 mps 768 mmHg 52%
    23:00 -5°C° 0 mm 4 mps 768 mmHg 50%

    23 February, Saturday

    Time Temperature Precipitation Wind Pressure Humidity
    00:00 -5°C° 0 mm 4 mps 769 mmHg 47%
    01:00 -5°C° 0 mm 4 mps 769 mmHg 44%
    02:00 -5°C° 0 mm 3 mps 769 mmHg 42%
    03:00 -5°C° 0 mm 3 mps 769 mmHg 41%
    04:00 -5°C° 0 mm 3 mps 768 mmHg 39%
    05:00 -5°C° 0 mm 3 mps 769 mmHg 39%
    06:00 -5°C° 0 mm 3 mps 769 mmHg 39%
    07:00 -6°C° 0 mm 3 mps 769 mmHg 39%
    08:00 -5°C° 0 mm 3 mps 770 mmHg 37%
    09:00 -5°C° 0 mm 3 mps 770 mmHg 34%
    10:00 -4°C° 0 mm 3 mps 770 mmHg 32%
    11:00 -2°C° 0 mm 2 mps 770 mmHg 30%
    12:00 -2°C° 0 mm 2 mps 770 mmHg 28%
    13:00 +1°C° 0 mm 1 mps 769 mmHg 26%
    14:00 +1°C° 0 mm 1 mps 769 mmHg 27%
    15:00 +1°C° 0 mm 1 mps 769 mmHg 28%
    16:00 -1°C° 0 mm 2 mps 769 mmHg 29%
    17:00 0°C° 0 mm 1 mps 769 mmHg 32%
    18:00 0°C° 0 mm 1 mps 769 mmHg 35%
    19:00 -1°C° 0 mm 1 mps 768 mmHg 37%
    20:00 -2°C° 0 mm 0 mps 768 mmHg 37%
    21:00 -1°C° 0 mm 0 mps 768 mmHg 36%
    22:00 -1°C° 0 mm 0 mps 768 mmHg 36%
    23:00 -1°C° 0 mm 0 mps 768 mmHg 36%

    24 February, Sunday

    Time Temperature Precipitation Wind Pressure Humidity
    00:00 0°C° 0 mm 1 mps 768 mmHg 36%
    01:00 0°C° 0 mm 1 mps 768 mmHg 36%
    02:00 0°C° 0 mm 1 mps 768 mmHg 37%
    03:00 0°C° 0 mm 1 mps 768 mmHg 37%
    04:00 0°C° 0 mm 1 mps 767 mmHg 37%
    05:00 0°C° 0 mm 1 mps 767 mmHg 38%
    06:00 -2°C° 0 mm 2 mps 767 mmHg 38%
    07:00 -2°C° 0 mm 2 mps 767 mmHg 39%
    08:00 -2°C° 0 mm 2 mps 767 mmHg 36%
    09:00 -1°C° 0 mm 2 mps 767 mmHg 34%
    10:00 +1°C° 0 mm 2 mps 767 mmHg 31%
    11:00 +2°C° 0 mm 2 mps 767 mmHg 31%
    12:00 +3°C° 0 mm 2 mps 766 mmHg 31%
    13:00 +4°C° 0 mm 2 mps 766 mmHg 31%
    14:00 +3°C° 0 mm 2 mps 766 mmHg 36%
    15:00 +3°C° 0 mm 2 mps 766 mmHg 41%
    16:00 +3°C° 0 mm 2 mps 765 mmHg 46%
    17:00 +2°C° 0 mm 2 mps 765 mmHg 49%
    18:00 +1°C° 0 mm 2 mps 766 mmHg 52%
    19:00 -1°C° 0 mm 2 mps 766 mmHg 56%
    20:00 -1°C° 0 mm 2 mps 766 mmHg 56%
    21:00 +1°C° 0 mm 1 mps 766 mmHg 57%
    22:00 +1°C° 0 mm 1 mps 766 mmHg 58%
    23:00 -1°C° 0 mm 2 mps 766 mmHg 59%

    25 February, Monday

    Time Temperature Precipitation Wind Pressure Humidity
    00:00 -1°C° 0 mm 2 mps 766 mmHg 60%
    01:00 -1°C° 0 mm 2 mps 766 mmHg 60%
    02:00 -1°C° 0 mm 2 mps 765 mmHg 61%
    03:00 -1°C° 0 mm 2 mps 765 mmHg 61%
    04:00 -1°C° 0 mm 2 mps 765 mmHg 61%
    05:00 -1°C° 0 mm 2 mps 765 mmHg 63%
    06:00 -1°C° 0 mm 3 mps 765 mmHg 65%
    07:00 -1°C° 0 mm 3 mps 765 mmHg 67%
    08:00 0°C° 0 mm 3 mps 765 mmHg 65%
    09:00 +1°C° 0 mm 3 mps 765 mmHg 62%
    10:00 +1°C° 0 mm 4 mps 765 mmHg 60%
    11:00 +3°C° 0 mm 4 mps 765 mmHg 62%
    12:00 +4°C° 0 mm 4 mps 764 mmHg 65%
    13:00 +5°C° 0 mm 5 mps 764 mmHg 67%
    14:00 +5°C° 0 mm 4 mps 764 mmHg 69%
    15:00 +6°C° 0 mm 4 mps 764 mmHg 71%
    16:00 +7°C° 0 mm 3 mps 764 mmHg 73%
    17:00 +5°C° 0 mm 4 mps 764 mmHg 75%
    18:00 +3°C° 0 mm 4 mps 765 mmHg 76%
    19:00 +1°C° 0 mm 4 mps 765 mmHg 78%
    20:00 +1°C° 0 mm 4 mps 765 mmHg 80%
    21:00 +1°C° 0 mm 3 mps 765 mmHg 82%
    22:00 +1°C° 0 mm 3 mps 765 mmHg 84%
    23:00 0°C° 0 mm 3 mps 765 mmHg 85%
    Show more